WX4MMM Weather Reports


Display with metric or nautical units.
time (UTC)temp
F
wind
direction
speed
MPH
gust
MPH
rain 1hr
in
rain 24hr
in
rain mn
in
humidity
%
barometer
mb
20260509213503 72 177 2.0 5.0 0.00 0.00 0.00 65 1009.9
20260509213003 72 133 1.0 7.0 0.00 0.00 0.00 66 1009.6
20260509212504 72 303 2.0 5.0 0.00 0.00 0.00 66 1009.6
20260509211503 72 270 1.0 3.0 0.00 0.00 0.00 68 1009.5
20260509211003 72 180 1.0 3.0 0.00 0.00 0.00 67 1009.5
20260509210503 72 201 0.0 2.0 0.00 0.00 0.00 67 1009.5
20260509205503 72 163 1.0 3.0 0.00 0.00 0.00 67 1009.7
20260509204502 72 139 1.0 5.0 0.00 0.00 0.00 66 1009.7
20260509204003 72 250 1.0 3.0 0.00 0.00 0.00 66 1009.6
20260509203504 71 308 3.0 6.0 0.00 0.00 0.00 67 1009.6
20260509203003 72 200 2.0 3.0 0.00 0.00 0.00 67 1009.8
20260509202502 72 173 2.0 5.0 0.00 0.00 0.00 65 1009.7
20260509201503 72 222 1.0 2.0 0.00 0.00 0.00 67 1009.7
20260509201003 71 193 1.0 3.0 0.00 0.00 0.00 67 1009.6
20260509200003 71 181 2.0 3.0 0.00 0.00 0.00 66 1009.9
20260509195503 72 172 0.0 2.0 0.00 0.00 0.00 64 1010.0
20260509194503 71 268 1.0 2.0 0.00 0.00 0.00 63 1010.1
20260509194003 71 156 1.0 2.0 0.00 0.00 0.00 64 1010.1
20260509193502 71 194 2.0 5.0 0.00 0.00 0.00 62 1010.1
20260509192503 72 189 1.0 5.0 0.00 0.00 0.00 62 1010.4
20260509192003 72 271 1.0 3.0 0.00 0.00 0.00 61 1010.4
20260509191503 72 165 2.0 6.0 0.00 0.00 0.00 60 1010.3
20260509191003 73 325 2.0 6.0 0.00 0.00 0.00 60 1010.1
20260509190502 72 130 1.0 2.0 0.00 0.00 0.00 58 1010.2
20260509185502 73 177 1.0 3.0 0.00 0.00 0.00 58 1010.4
20260509185003 73 180 2.0 3.0 0.00 0.00 0.00 58 1010.3
20260509184003 74 157 1.0 5.0 0.00 0.00 0.00 57 1010.2
20260509183503 74 141 2.0 5.0 0.00 0.00 0.00 54 1010.2
20260509183002 75 142 1.0 5.0 0.00 0.00 0.00 55 1010.1
20260509182503 74 236 2.0 6.0 0.00 0.00 0.00 54 1010.1
20260509182003 74 270 1.0 3.0 0.00 0.00 0.00 56 1010.2
20260509181503 74 237 2.0 6.0 0.00 0.00 0.00 56 1010.4
20260509180503 73 213 1.0 9.0 0.00 0.00 0.00 54 1010.4
20260509180002 72 206 2.0 6.0 0.00 0.00 0.00 57 1010.7
20260509175502 72 168 3.0 6.0 0.00 0.00 0.00 55 1010.9
20260509175003 72 207 2.0 5.0 0.00 0.00 0.00 56 1010.9
20260509174003 73 236 2.0 5.0 0.00 0.00 0.00 55 1010.9
20260509173503 73 259 1.0 3.0 0.00 0.00 0.00 57 1010.8
20260509173003 72 201 1.0 3.0 0.00 0.00 0.00 56 1011.0
20260509172002 72 226 1.0 3.0 0.00 0.00 0.00 56 1011.2
20260509171003 72 118 3.0 5.0 0.00 0.00 0.00 56 1011.2
20260509170504 72 168 2.0 7.0 0.00 0.00 0.00 57 1011.4
20260509170002 72 198 2.0 3.0 0.00 0.00 0.00 58 1011.5
20260509165003 71 254 1.0 8.0 0.00 0.00 0.00 58 1011.5
20260509164504 71 231 2.0 9.0 0.00 0.00 0.00 58 1011.7
20260509164003 71 228 2.0 7.0 0.00 0.00 0.00 59 1011.6
20260509163503 72 194 2.0 6.0 0.00 0.00 0.00 58 1011.7
20260509163003 72 126 3.0 6.0 0.00 0.00 0.00 56 1011.4
20260509162503 72 144 1.0 3.0 0.00 0.00 0.00 58 1011.5
20260509162003 71 294 1.0 5.0 0.00 0.00 0.00 60 1011.6
20260509161502 72 260 2.0 3.0 0.00 0.00 0.00 59 1011.6
20260509161004 71 248 2.0 6.0 0.00 0.00 0.00 59 1011.6
20260509160504 71 163 2.0 6.0 0.00 0.00 0.00 59 1011.6
20260509160003 70 239 1.0 3.0 0.00 0.00 0.00 64 1011.6
20260509155003 71 201 1.0 5.0 0.00 0.00 0.00 64 1011.7
20260509154504 70 275 1.0 6.0 0.00 0.00 0.00 61 1011.7
20260509154003 70 171 2.0 6.0 0.00 0.00 0.00 61 1011.6
20260509153503 70 272 1.0 5.0 0.00 0.00 0.00 64 1011.5
20260509153003 69 107 2.0 6.0 0.00 0.00 0.00 62 1011.4
20260509152503 69 139 2.0 5.0 0.00 0.00 0.00 62 1011.5
20260509151503 69 161 2.0 6.0 0.00 0.00 0.00 62 1011.7
20260509151003 69 245 2.0 3.0 0.00 0.00 0.00 64 1011.9
20260509150502 69 131 3.0 6.0 0.00 0.00 0.00 62 1012.1
20260509150002 69 195 2.0 6.0 0.00 0.00 0.00 65 1012.2
20260509145503 69 131 1.0 3.0 0.00 0.00 0.00 65 1012.3
20260509145003 68 285 1.0 5.0 0.00 0.00 0.00 64 1012.2
20260509144503 68 184 2.0 3.0 0.00 0.00 0.00 66 1012.3
20260509144003 68 298 1.0 5.0 0.00 0.00 0.00 64 1012.5
20260509143502 67 239 2.0 5.0 0.00 0.00 0.00 63 1012.5
20260509143003 67 127 2.0 5.0 0.00 0.00 0.00 64 1012.6
20260509142503 67 283 1.0 3.0 0.00 0.00 0.00 67 1012.6
20260509141502 66 102 1.0 3.0 0.00 0.00 0.00 67 1012.9
20260509141003 66 258 1.0 2.0 0.00 0.00 0.00 69 1013.0
20260509140503 66 134 1.0 5.0 0.00 0.00 0.00 70 1013.1
20260509140004 66 261 0.0 3.0 0.00 0.00 0.00 70 1013.0
20260509135502 65 299 1.0 3.0 0.00 0.00 0.00 73 1013.0
20260509133503 63 154 1.0 3.0 0.00 0.00 0.00 76 1013.2
20260509133004 63 146 0.0 1.0 0.00 0.00 0.00 79 1013.4
20260509132503 62 293 0.0 1.0 0.00 0.00 0.00 79 1013.5
20260509132004 62 318 0.0 1.0 0.00 0.00 0.00 78 1013.4
20260509131503 62 165 0.0 1.0 0.00 0.00 0.00 80 1013.3
20260509131004 62 166 0.0 1.0 0.00 0.00 0.00 81 1013.3
20260509130004 61 113 1.0 1.0 0.00 0.00 0.00 80 1013.5
20260509125503 61 177 2.0 2.0 0.00 0.00 0.00 81 1013.6
20260509125003 61 186 0.0 1.0 0.00 0.00 0.00 84 1013.4
20260509124502 60 152 0.0 2.0 0.00 0.00 0.00 85 1013.3
20260509124003 59 168 1.0 2.0 0.00 0.00 0.00 87 1013.2
20260509123503 58 154 1.0 2.0 0.00 0.00 0.00 90 1013.1
20260509123003 58 69 1.0 2.0 0.00 0.00 0.00 92 1012.9
20260509122503 57 6 0.0 2.0 0.00 0.00 0.00 94 1012.9
20260509122003 56 81 0.0 3.0 0.00 0.00 0.00 96 1012.9
20260509121502 56 174 2.0 3.0 0.00 0.00 0.00 96 1013.0
20260509121003 55 155 0.0 2.0 0.00 0.00 0.00 96 1013.2
20260509120503 55 102 0.0 1.0 0.00 0.00 0.00 96 1013.4
20260509120003 54 83 0.0 1.0 0.00 0.00 0.00 96 1013.5
20260509115503 54 116 0.0 1.0 0.00 0.00 0.00 96 1013.6
20260509115003 53 70 1.0 1.0 0.00 0.00 0.00 96 1013.7
20260509114503 52 186 1.0 1.0 0.00 0.00 0.00 96 1013.7
20260509114003 51 175 0.0 1.0 0.00 0.00 0.00 96 1013.6
20260509113503 51 144 0.0 1.0 0.00 0.00 0.00 96 1013.5
20260509113003 50 54 0.0 1.0 0.00 0.00 0.00 96 1013.4
20260509112503 50 184 0.0 1.0 0.00 0.00 0.00 96 1013.3
20260509112003 50 168 0.0 1.0 0.00 0.00 0.00 96 1013.2
20260509111503 49 344 0.0 0.0 0.00 0.00 0.00 96 1013.2
20260509111003 49 344 0.0 0.0 0.00 0.00 0.00 96 1013.2
20260509110503 49 279 0.0 0.0 0.00 0.00 0.00 96 1013.2
20260509110003 49 176 0.0 0.0 0.00 0.00 0.00 96 1013.1
20260509105502 49 176 0.0 0.0 0.00 0.00 0.00 96 1013.0
20260509105002 49 176 0.0 0.0 0.00 0.00 0.00 96 1012.9
20260509104003 49 176 1.0 1.0 0.00 0.00 0.00 95 1012.7
20260509103502 49 165 0.0 1.0 0.00 0.00 0.00 95 1012.6
20260509103004 50 81 0.0 1.0 0.00 0.00 0.00 95 1012.7
20260509102503 50 58 0.0 0.0 0.00 0.00 0.00 95 1012.9
20260509102003 50 58 0.0 0.0 0.00 0.00 0.00 95 1012.8
20260509101003 50 58 0.0 0.0 0.00 0.00 0.00 95 1012.7
20260509100503 51 58 0.0 0.0 0.00 0.00 0.00 95 1012.7
20260509100002 51 30 0.0 0.0 0.00 0.00 0.00 95 1012.6
20260509095503 51 30 0.0 1.0 0.00 0.00 0.00 95 1012.6
20260509095003 51 357 1.0 2.0 0.00 0.00 0.00 95 1012.6
20260509094503 51 290 0.0 2.0 0.00 0.00 0.00 95 1012.8
20260509094003 51 271 0.0 0.0 0.00 0.00 0.00 95 1012.8
20260509093503 51 271 0.0 0.0 0.00 0.00 0.00 95 1012.8
20260509093003 51 271 1.0 1.0 0.00 0.00 0.00 95 1012.8
20260509092503 51 286 0.0 0.0 0.00 0.00 0.00 94 1012.8
20260509092003 51 286 0.0 0.0 0.00 0.00 0.00 94 1012.7
20260509091503 51 286 0.0 0.0 0.00 0.00 0.00 94 1012.8
20260509091003 51 350 0.0 0.0 0.00 0.00 0.00 94 1012.9
20260509090503 51 350 0.0 0.0 0.00 0.00 0.00 94 1013.0
20260509085503 51 324 0.0 0.0 0.00 0.00 0.00 94 1013.0
20260509085004 51 324 0.0 0.0 0.00 0.00 0.00 94 1013.0
20260509084503 51 324 0.0 0.0 0.00 0.00 0.00 93 1013.1
20260509084003 52 115 0.0 0.0 0.00 0.00 0.00 93 1013.3
20260509083503 52 115 0.0 0.0 0.00 0.00 0.00 93 1013.3
20260509083004 52 115 0.0 0.0 0.00 0.00 0.00 93 1013.4
20260509082503 52 185 0.0 0.0 0.00 0.00 0.00 93 1013.5
20260509080003 53 257 0.0 0.0 0.00 0.00 0.00 91 1013.4
20260509075503 53 187 0.0 1.0 0.00 0.00 0.00 91 1013.4
20260509075003 53 137 0.0 1.0 0.00 0.00 0.00 90 1013.4
20260509074503 53 175 0.0 0.0 0.00 0.00 0.00 90 1013.5
20260509074003 53 175 0.0 1.0 0.00 0.00 0.00 90 1013.4
20260509073502 53 105 0.0 1.0 0.00 0.00 0.00 90 1013.4
20260509073003 53 150 0.0 1.0 0.00 0.00 0.00 90 1013.5
20260509072503 53 193 0.0 1.0 0.00 0.00 0.00 89 1013.4
20260509072003 54 288 0.0 0.0 0.00 0.00 0.00 89 1013.5
20260509071503 54 288 0.0 1.0 0.00 0.00 0.00 88 1013.5
20260509071004 54 193 0.0 1.0 0.00 0.00 0.00 88 1013.6
20260509070503 54 149 0.0 0.0 0.00 0.00 0.00 88 1013.6
20260509070003 54 153 0.0 1.0 0.00 0.00 0.00 88 1013.6
20260509065003 54 158 0.0 0.0 0.00 0.00 0.00 86 1013.6
20260509064003 55 158 0.0 2.0 0.00 0.00 0.00 85 1013.7
20260509063503 55 39 0.0 0.0 0.00 0.00 0.00 86 1013.8
20260509063002 55 49 0.0 1.0 0.00 0.00 0.00 85 1013.7
20260509062003 55 50 0.0 1.0 0.00 0.00 0.00 85 1014.1
20260509061504 55 89 0.0 0.0 0.00 0.00 0.00 85 1014.2
20260509060503 55 107 0.0 1.0 0.00 0.00 0.00 84 1014.4
20260509060003 55 212 0.0 1.0 0.00 0.00 0.00 83 1014.3
20260509055503 56 259 0.0 0.0 0.00 0.00 0.00 82 1014.4
20260509055004 56 258 0.0 0.0 0.00 0.00 0.00 82 1014.5
20260509054503 55 248 1.0 1.0 0.00 0.00 0.00 83 1014.5
20260509054003 55 262 0.0 0.0 0.00 0.00 0.00 83 1014.6
20260509053003 56 262 0.0 0.0 0.00 0.00 0.00 82 1014.6
20260509052503 56 277 0.0 1.0 0.00 0.00 0.00 82 1014.6
20260509052003 56 257 0.0 0.0 0.00 0.00 0.00 81 1014.7
20260509051503 56 257 0.0 0.0 0.00 0.00 0.00 81 1014.8
20260509050503 55 321 0.0 1.0 0.00 0.00 0.00 81 1014.9
20260509050003 55 316 0.0 1.0 0.00 0.00 0.00 81 1014.9
20260509045503 55 298 0.0 0.0 0.00 0.00 0.00 81 1014.8
20260509045003 55 233 0.0 1.0 0.00 0.00 0.00 80 1014.8
20260509044504 55 300 0.0 1.0 0.00 0.00 0.00 78 1014.8
20260509044004 55 268 0.0 0.0 0.00 0.00 0.00 78 1014.8
20260509043503 55 268 0.0 1.0 0.00 0.00 0.00 78 1014.7
20260509043003 55 253 0.0 0.0 0.00 0.00 0.00 78 1014.7
20260509042503 55 253 0.0 1.0 0.00 0.00 0.00 79 1014.7
20260509042004 55 275 0.0 0.0 0.00 0.00 0.00 80 1014.7
20260509041504 55 275 0.0 0.0 0.00 0.00 0.00 79 1014.7
20260509041003 54 278 1.0 1.0 0.00 0.00 0.00 80 1014.7
20260509040503 54 240 0.0 2.0 0.00 0.00 0.00 80 1014.7
20260509040003 53 286 0.0 1.0 0.00 0.00 0.00 81 1014.8
20260509035503 53 295 0.0 1.0 0.00 0.00 0.00 82 1014.7
20260509035004 53 13 0.0 1.0 0.00 0.00 0.00 82 1014.8
20260509034503 53 176 0.0 1.0 0.00 0.00 0.00 83 1014.7
20260509034004 53 178 0.0 0.0 0.00 0.00 0.00 83 1014.8
20260509033503 53 178 0.0 1.0 0.00 0.00 0.00 83 1014.9
20260509033004 53 176 0.0 1.0 0.00 0.00 0.00 83 1015.0
20260509032503 53 289 0.0 0.0 0.00 0.00 0.00 83 1014.9
20260509032004 53 306 0.0 1.0 0.00 0.00 0.00 82 1015.0
20260509031503 53 254 0.0 0.0 0.00 0.00 0.00 82 1014.9
20260509031004 53 210 0.0 0.0 0.00 0.00 0.00 82 1014.8
20260509030503 54 210 0.0 0.0 0.00 0.00 0.00 82 1014.9
20260509030003 54 206 0.0 1.0 0.00 0.00 0.00 81 1014.9
20260509025502 54 332 0.0 0.0 0.00 0.00 0.00 82 1015.0
20260509025003 54 332 0.0 0.0 0.00 0.00 0.00 82 1015.2
20260509024503 54 332 0.0 1.0 0.00 0.00 0.00 82 1015.3
20260509024004 54 287 0.0 0.0 0.00 0.00 0.00 81 1015.3
20260509023003 54 341 0.0 1.0 0.00 0.00 0.00 80 1015.3
20260509022503 54 222 0.0 0.0 0.00 0.00 0.00 80 1015.3
20260509022003 54 222 0.0 0.0 0.00 0.00 0.00 80 1015.2
20260509021504 55 222 0.0 1.0 0.00 0.00 0.00 79 1015.2
20260509021003 55 12 0.0 1.0 0.00 0.00 0.00 78 1015.2
20260509020503 55 86 0.0 1.0 0.00 0.00 0.00 78 1015.2
20260509020004 55 278 0.0 1.0 0.00 0.00 0.00 78 1015.2
20260509015503 55 274 0.0 1.0 0.00 0.00 0.00 78 1015.1
20260509015003 55 35 0.0 1.0 0.00 0.00 0.00 78 1015.1
20260509014502 55 211 0.0 1.0 0.00 0.00 0.00 78 1015.1
20260509014003 56 248 0.0 1.0 0.00 0.00 0.00 78 1015.1
20260509013503 56 288 0.0 0.0 0.00 0.00 0.00 77 1015.1
20260509013004 56 222 0.0 0.0 0.00 0.00 0.00 76 1015.1
20260509012504 56 222 0.0 0.0 0.00 0.00 0.00 75 1015.0
20260509012003 56 222 0.0 1.0 0.00 0.00 0.00 75 1015.0
20260509011503 57 314 0.0 1.0 0.00 0.00 0.00 75 1014.9
20260509011004 57 217 0.0 0.0 0.00 0.00 0.00 74 1014.9
20260509010503 57 286 0.0 1.0 0.00 0.00 0.00 73 1014.8
20260509005503 58 4 0.0 1.0 0.00 0.00 0.00 70 1014.6
20260509005003 58 260 0.0 1.0 0.00 0.00 0.00 69 1014.6
20260509004503 59 247 0.0 0.0 0.00 0.00 0.00 68 1014.4
20260509004004 59 247 0.0 1.0 0.00 0.00 0.00 67 1014.4
20260509003504 60 220 0.0 1.0 0.00 0.00 0.00 66 1014.5
20260509003003 60 333 0.0 1.0 0.00 0.00 0.00 64 1014.4
20260509002505 60 236 0.0 1.0 0.00 0.00 0.00 63 1014.3
20260509002004 61 300 0.0 0.0 0.00 0.00 0.00 62 1014.3
20260509001504 62 340 0.0 0.0 0.00 0.00 0.00 60 1014.4
20260509001004 62 297 0.0 0.0 0.00 0.00 0.00 59 1014.4
20260509000503 62 297 0.0 0.0 0.00 0.00 0.00 58 1014.4
20260508235503 63 297 0.0 0.0 0.00 0.00 0.00 55 1014.5
20260508235004 64 305 0.0 0.0 0.00 0.00 0.00 53 1014.3
20260508234503 64 306 0.0 1.0 0.00 0.00 0.00 51 1014.4
20260508234003 65 179 0.0 0.0 0.00 0.00 0.00 51 1014.3
20260508233504 65 179 0.0 1.0 0.00 0.00 0.00 51 1014.3
20260508233004 66 230 0.0 1.0 0.00 0.00 0.00 49 1014.1
20260508232503 66 342 0.0 1.0 0.00 0.03 0.00 48 1014.0
20260508232003 66 177 0.0 1.0 0.00 0.03 0.00 49 1014.1
20260508231504 67 93 0.0 0.0 0.00 0.03 0.00 48 1014.0
20260508231003 67 93 0.0 0.0 0.00 0.03 0.00 49 1013.9
20260508230503 67 237 0.0 1.0 0.00 0.03 0.00 46 1014.0
20260508230004 68 293 0.0 3.0 0.00 0.03 0.00 45 1013.9
20260508225503 68 195 0.0 2.0 0.00 0.03 0.00 45 1014.0
20260508224503 68 17 0.0 1.0 0.00 0.03 0.00 43 1014.1
20260508223504 68 276 0.0 2.0 0.00 0.03 0.00 43 1013.8
20260508222503 69 133 1.0 3.0 0.00 0.03 0.00 40 1013.8
20260508222003 69 254 1.0 3.0 0.00 0.03 0.00 42 1013.7
20260508221503 69 232 1.0 3.0 0.00 0.03 0.00 39 1013.9
20260508220503 69 218 1.0 3.0 0.00 0.03 0.00 39 1013.8
20260508220004 69 140 1.0 3.0 0.00 0.03 0.00 41 1013.8
20260508215503 69 328 1.0 2.0 0.00 0.03 0.00 39 1013.8
20260508215003 69 323 1.0 2.0 0.00 0.03 0.00 41 1013.7
20260508214503 70 141 0.0 2.0 0.00 0.03 0.00 38 1013.7